This is the latest recevied weather packets stored in our database for station/object JA3YAI-13. If no packets are shown the sender has not sent any weather packets the latest 10 day(s).
| Time | Temp. | Humidity | Pressure | Rain* | Wind** | Luminosity | Snow |
|---|---|---|---|---|---|---|---|
| 1777879585 | 17.78° C | 64% | 1001.6 hPa | 0 mm | - | - | - |
| 1777878984 | 17.78° C | 63% | 1001.5 hPa | 0 mm | - | - | - |
| 1777878384 | 17.78° C | 64% | 1001.3 hPa | 0 mm | - | - | - |
| 1777877785 | 17.78° C | 66% | 1001.1 hPa | 0 mm | - | - | - |
| 1777877185 | 17.78° C | 65% | 1001 hPa | 0 mm | - | - | - |
| 1777876585 | 17.78° C | 65% | 1000.9 hPa | 0 mm | - | - | - |
| 1777875984 | 17.78° C | 66% | 1000.8 hPa | 0 mm | - | - | - |
| 1777875384 | 18.33° C | 65% | 1000.5 hPa | 0 mm | - | - | - |
| 1777874785 | 18.33° C | 64% | 1000.4 hPa | 0 mm | - | - | - |
| 1777874185 | 18.33° C | 64% | 1000.4 hPa | 0 mm | - | - | - |
| 1777873584 | 18.89° C | 63% | 1000.6 hPa | 0 mm | - | - | - |
| 1777872984 | 18.33° C | 64% | 1000.4 hPa | 0 mm | - | - | - |
| 1777872385 | 18.33° C | 64% | 1000.4 hPa | 0 mm | - | - | - |
| 1777871785 | 19.44° C | 61% | 1000.4 hPa | 0 mm | - | - | - |
| 1777871184 | 19.44° C | 60% | 1000.3 hPa | 0 mm | - | - | - |
| 1777870584 | 18.89° C | 60% | 1000.2 hPa | 0 mm | - | - | - |
| 1777869983 | 19.44° C | 61% | 1000.1 hPa | 0 mm | - | - | - |
| 1777869385 | 20° C | 60% | 999.7 hPa | 0 mm | - | - | - |
| 1777868785 | 19.44° C | 60% | 999.7 hPa | 0 mm | - | - | - |
| 1777868184 | 19.44° C | 64% | 999.6 hPa | 0 mm | - | - | - |
| 1777867583 | 18.89° C | 62% | 999.6 hPa | 0 mm | - | - | - |
| 1777866985 | 18.89° C | 63% | 999.6 hPa | 0 mm | - | - | - |
| 1777866384 | 18.33° C | 61% | 999.6 hPa | 0 mm | - | - | - |
| 1777865784 | 18.33° C | 63% | 999.6 hPa | 0 mm | - | - | - |
| 1777865184 | 18.33° C | 63% | 999.4 hPa | 0 mm | - | - | - |
* Rain latest hour (hover to see other rain measurements)
** Current wind speed in m/s (hover to see current wind gust speed)